Location: Newark
(33.6439°N, 114.9881°W)
Time: 07:31:43
(UTC+00:00)

Vanguard 3 - All Passes

Search period start: 18 July 2019 00:00
Search period end: 28 July 2019 00:00
Orbit: 507 x 3264 km, 33.4° (Epoch: 17 July)

Date Brightness Start Highest point End Pass type
(mag) Time Alt. Az. Time Alt. Az. Time Alt. Az.
18 Jul - 07:52:37 10° SSE 07:58:19 17° SE 08:05:44 10° E visible
18 Jul - 09:59:08 10° SW 10:09:53 55° SSE 10:27:12 10° ENE visible
18 Jul - 12:10:40 10° WSW 12:25:11 85° SSE 12:45:32 10° E visible
18 Jul - 14:24:46 10° W 14:42:58 86° S 15:02:22 10° ESE daylight
18 Jul - 16:40:42 10° WNW 17:00:03 61° SSW 17:16:08 10° SE daylight
18 Jul - 19:00:10 10° W 19:14:03 26° SW 19:24:57 10° S daylight
19 Jul - 08:46:42 10° SSW 08:55:15 35° SE 09:08:43 10° E visible
19 Jul - 10:56:28 10° WSW 11:08:36 75° SSE 11:27:48 10° E visible
19 Jul - 13:09:19 10° W 13:25:21 89° S 13:45:43 10° E daylight
19 Jul - 15:24:06 10° WNW 15:43:06 74° SSW 16:01:22 10° ESE daylight
19 Jul - 17:41:11 10° W 17:58:46 41° SW 18:12:55 10° SSE daylight
19 Jul - 20:09:32 10° WSW 20:11:25 10° SW 20:13:14 10° SW daylight
20 Jul - 07:35:54 10° SSE 07:41:32 18° SE 07:49:09 10° E visible
20 Jul - 09:43:03 10° SW 09:53:00 58° SSE 10:09:46 10° ENE visible
20 Jul - 11:54:33 10° W 12:08:09 87° S 12:28:17 10° E visible
20 Jul - 14:08:15 10° W 14:25:39 84° SSW 14:45:30 10° ESE daylight
20 Jul - 16:23:47 10° WNW 16:42:36 56° SSW 16:59:20 10° SE daylight
20 Jul - 18:43:31 10° W 18:56:43 23° SW 19:07:41 10° S daylight
21 Jul - 08:30:32 10° SSW 08:38:28 38° SE 08:51:29 10° E visible
21 Jul - 10:40:27 10° WSW 10:51:44 78° SSE 11:10:24 10° E visible
21 Jul - 12:53:05 10° W 13:08:13 89° S 13:28:38 10° E daylight
21 Jul - 15:07:25 10° WNW 15:25:40 70° SSW 15:44:30 10° SE daylight
21 Jul - 17:24:19 10° W 17:41:19 37° SW 17:55:54 10° SSE daylight
22 Jul - 07:19:24 10° S 07:24:51 20° SE 07:32:29 10° E visible
22 Jul - 09:27:04 10° SW 09:36:16 62° SSE 09:52:20 10° ENE visible
22 Jul - 11:38:31 10° W 11:51:14 88° S 12:11:00 10° E visible
22 Jul - 13:51:52 10° W 14:08:22 81° SSW 14:28:29 10° ESE daylight
22 Jul - 16:07:00 10° WNW 16:25:06 52° SSW 16:42:20 10° SE daylight
22 Jul - 18:27:12 10° W 18:39:23 20° SW 18:50:03 10° S daylight
23 Jul - 08:14:29 10° SSW 08:21:49 41° SE 08:34:14 10° E visible
23 Jul - 10:24:33 10° WSW 10:35:00 81° SSE 10:52:58 10° E visible
23 Jul - 12:36:57 10° W 12:51:10 88° S 13:11:26 10° E daylight
23 Jul - 14:50:52 10° WNW 15:08:15 66° SSW 15:27:26 10° SE daylight
23 Jul - 17:07:39 10° W 17:23:50 34° SW 17:38:37 10° SSE daylight
24 Jul - 07:03:04 10° S 07:08:17 21° SE 07:15:46 10° E visible
24 Jul - 09:11:13 10° SW 09:19:41 66° SSE 09:34:54 10° ENE visible
24 Jul - 11:22:35 10° W 11:34:25 89° S 11:53:38 10° E visible
24 Jul - 13:35:33 10° W 13:51:08 78° SSW 14:11:19 10° ESE daylight
24 Jul - 15:50:24 10° W 16:07:36 48° SW 16:25:07 10° SSE daylight
24 Jul - 18:11:17 10° W 18:22:02 17° SW 18:31:57 10° SSW daylight
25 Jul - 07:58:33 10° SW 08:05:20 44° SE 08:17:02 10° E visible
25 Jul - 10:08:44 10° WSW 10:18:23 84° SSE 10:35:31 10° E visible
25 Jul - 12:20:52 10° W 12:34:09 86° S 12:54:08 10° ESE visible
25 Jul - 14:34:26 10° WNW 14:50:51 62° SSW 15:10:11 10° SE daylight
25 Jul - 16:51:13 10° W 17:06:23 30° SW 17:21:03 10° S daylight
26 Jul - 06:46:54 10° S 06:51:49 23° SE 06:59:04 10° E visible
26 Jul - 08:55:26 10° WSW 09:03:13 70° SSE 09:17:32 10° E visible
26 Jul - 11:06:42 10° W 11:17:41 89° S 11:36:14 10° E visible
26 Jul - 13:19:21 10° W 13:33:56 74° SSW 13:53:59 10° ESE daylight
26 Jul - 15:33:57 10° W 15:50:09 43° SW 16:07:40 10° SSE daylight
26 Jul - 17:56:03 10° WSW 18:04:45 15° SW 18:13:09 10° SSW daylight
27 Jul - 07:42:42 10° SW 07:48:57 48° SSE 07:59:53 10° E visible
27 Jul - 09:53:00 10° W 10:01:54 86° S 10:18:06 10° E visible
27 Jul - 12:04:53 10° W 12:17:15 83° SSW 12:36:45 10° ESE visible
27 Jul - 14:18:07 10° W 14:33:31 57° SSW 14:52:44 10° SE daylight
27 Jul - 16:35:04 10° W 16:48:59 26° SW 17:03:08 10° S daylight
